Abilene, TX

6:04 AM CDT on June 23, 2017 (GMT -0500)
Abilene Regional

Weather History for KABI - August, 2013

Change the Weather History Date:

Monday, August 19, 2013

  Actual Average Record
Temperature  
Mean Temperature 83 °F 83 °F  
Max Temperature 95 °F 94 °F 105 °F (1986)
Min Temperature 71 °F 72 °F 60 °F (1950)
Degree Days  
Heating Degree Days 0 0  
Month to date heating degree days 0 0  
Since 1 June heating degree days 0 1  
Since 1 July heating degree days 0 0  
Cooling Degree Days 18 18  
Month to date cooling degree days 383 354  
Year to date cooling degree days 1929 1747  
Since 1 June cooling degree days 1448 1350  
Growing Degree Days 33 (Base 50)    
Moisture  
Dew Point 57 °F    
Average Humidity 47    
Maximum Humidity 61    
Minimum Humidity 32    
Precipitation  
Precipitation 0.00 in 0.08 in 1.75 in (1910)
Month to date precipitation 0.45 1.53  
Year to date precipitation 16.24 15.90  
Sea Level Pressure  
Sea Level Pressure 29.95 in    
Wind  
Wind Speed 11 mph (SE)    
Max Wind Speed 21 mph    
Max Gust Speed 28 mph    
Visibility 10 miles    
Events      
T = Trace of Precipitation, MM = Missing Value Source: NWS Daily Summary

Daily Weather History Graph

Daily Weather History Graph

Search for Another Location

Airport or City:

Trip Planner

Search our weather history database for the weather conditions in past years. The results will help you decide how hot, cold, wet, or windy it might be!

Date:

Astronomy

Aug. 19, 2013 Rise Set
Actual Time 7:05 AM CDT 8:18 PM CDT
Civil Twilight 6:39 AM CDT 8:44 PM CDT
Nautical Twilight 6:09 AM CDT 9:14 PM CDT
Astronomical Twilight 5:37 AM CDT 9:46 PM CDT
Moon 7:10 PM CDT (8/19) 5:28 AM CDT (8/19)
Length of Visible Light 14h 04m
Length of Day
13h 12m
Waxing Gibbous, 97% of the Moon is Illuminated
Aug 19
Waxing Gibbous
Aug 20
Full
Aug 28
Last Quarter
Sep 5
New
Sep 12
First Quarter

Hourly Weather History & Observations

Time (CDT) Temp. Heat Index Dew Point Humidity Pressure Visibility Wind Dir Wind Speed Gust Speed Precip Events Conditions
12:52 AM 77.0 °F - 55.9 °F 48% 29.98 in 10.0 mi SE 9.2 mph - N/A   Clear
1:52 AM 75.0 °F - 57.0 °F 53% 29.97 in 10.0 mi SE 6.9 mph - N/A   Clear
2:52 AM 73.0 °F - 57.0 °F 57% 29.97 in 10.0 mi SE 6.9 mph - N/A   Clear
3:52 AM 72.0 °F - 57.0 °F 59% 29.96 in 10.0 mi SE 8.1 mph - N/A   Clear
4:52 AM 73.0 °F - 57.0 °F 57% 29.96 in 10.0 mi SSE 6.9 mph - N/A   Scattered Clouds
5:52 AM 73.0 °F - 57.0 °F 57% 29.96 in 10.0 mi SE 11.5 mph - N/A   Partly Cloudy
6:52 AM 72.0 °F - 57.0 °F 59% 29.97 in 10.0 mi SSE 10.4 mph - N/A   Clear
7:52 AM 73.0 °F - 55.9 °F 55% 29.99 in 10.0 mi SSE 10.4 mph - N/A   Clear
8:52 AM 75.0 °F - 55.9 °F 51% 30.01 in 10.0 mi SSE 11.5 mph - N/A   Scattered Clouds
9:52 AM 81.0 °F 80.8 °F 55.9 °F 42% 30.01 in 10.0 mi SSE 16.1 mph - N/A   Clear
10:52 AM 84.9 °F 83.9 °F 57.0 °F 38% 30.02 in 10.0 mi SSE 9.2 mph - N/A   Clear
11:52 AM 88.0 °F 86.9 °F 57.9 °F 36% 30.01 in 10.0 mi SSE 15.0 mph 21.9 mph N/A   Clear
12:52 PM 90.0 °F 89.1 °F 59.0 °F 35% 29.99 in 10.0 mi SSE 17.3 mph 21.9 mph N/A   Clear
1:52 PM 91.9 °F 90.8 °F 57.9 °F 32% 29.98 in 10.0 mi SSE 17.3 mph 24.2 mph N/A   Clear
2:52 PM 93.0 °F 92.3 °F 59.0 °F 32% 29.95 in 10.0 mi SE 15.0 mph 23.0 mph N/A   Clear
3:52 PM 93.0 °F 92.3 °F 59.0 °F 32% 29.91 in 10.0 mi South 11.5 mph 17.3 mph N/A   Clear
4:52 PM 93.9 °F 93.2 °F 59.0 °F 31% 29.90 in 10.0 mi SSE 10.4 mph 17.3 mph N/A   Clear
5:52 PM 93.0 °F 92.3 °F 59.0 °F 32% 29.89 in 10.0 mi SE 10.4 mph 20.7 mph N/A   Clear
6:52 PM 91.9 °F 90.8 °F 57.9 °F 32% 29.89 in 10.0 mi SSE 16.1 mph 21.9 mph N/A   Clear
7:52 PM 89.1 °F 88.0 °F 57.9 °F 35% 29.89 in 10.0 mi SE 10.4 mph - N/A   Clear
8:52 PM 84.9 °F 84.2 °F 57.9 °F 40% 29.90 in 10.0 mi SE 9.2 mph - N/A   Clear
9:52 PM 82.0 °F 82.0 °F 57.9 °F 44% 29.92 in 10.0 mi SE 9.2 mph - N/A   Clear
10:52 PM 82.9 °F 82.4 °F 57.0 °F 41% 29.92 in 10.0 mi ESE 12.7 mph - N/A   Clear
11:52 PM 81.0 °F 81.0 °F 57.0 °F 44% 29.91 in 10.0 mi SE 10.4 mph - N/A   Clear